Regional Weather Roundup
Issued by NWS Midland/Odessa, TX

Home | Current Version | Previous Version | Text Only | Print | Product List | Glossary On
Versions: 1 2 3 4 5 6 7 8 9 10 11 12 13 14 15 16 17 18 19 20 21 22 23 24 25 26 27 28 29 30 31 32 33 34 35 36 37 38 39 40 41 42 43 44 45 46 47 48 49 50
000
ASUS44 KMAF 200410
RWRMAF
MIDLAND AREA WEATHER ROUNDUP
NATIONAL WEATHER SERVICE MIDLAND TX
1000 PM CST THU JAN 19 2017

...IN SOUTHWEST TEXAS AND SOUTHEAST NEW MEXICO...

CITY           SKY/WX    TMP DP  RH WIND       PRES   REMARKS
ALPINE         CLEAR     45  24  44 SW7       29.92S
ANDREWS        FAIR      51  31  46 W12G21    29.72R
ARTESIA        CLEAR     48  34  57 W16       29.75S
BIG SPRING     CLOUDY    47  36  64 SE8       29.71F
CARLSBAD       CLEAR     52  32  46 W30G38    29.74F
DRYDEN           N/A     52  32  46 NW7       29.77F
FORT STOCKTON  CLEAR     49  27  42 SW8       29.80S
GUAD PASS      NOT AVBL
HOBBS          NOT AVBL
MARFA          CLEAR     39  23  52 W9        29.91R WCI  33
MIDLAND AIRPK  CLOUDY    55  30  38 W15       29.73S
MIDLAND INTL   CLOUDY    54  29  38 W15       29.73R
ODESSA         CLOUDY    54  28  36 W14G25    29.74R
PECOS          CLEAR     49  30  49 W8        29.79S
PRESIDIO       FAIR      52  27  37 N8        29.84S
SEMINOLE       CLOUDY    51  31  46 W15       29.72R
SNYDER         CLEAR     46  34  62 SW9       29.67S
WINK           PTCLDY    55  27  34 W21       29.74R
$$
...OTHER STATIONS IN TEXAS...

CITY           SKY/WX    TMP DP  RH WIND       PRES   REMARKS
ABILENE        CLEAR     53  34  48 SW10      29.67R
AMARILLO       CLOUDY    45  30  55 W6        29.55S
AUSTIN         CLEAR     56  53  90 CALM      29.74R
BROWNSVILLE    CLOUDY    67  65  93 SE12      29.80F
CORPUS CHRISTI CLOUDY    61  61 100 S13       29.78R FOG
DALLAS FTW     CLEAR     57  54  89 S14       29.62S
DEL RIO        CLEAR     52  45  77 CALM      29.77R
EL PASO        PTCLDY    52  25  35 VRB6G18   29.88R
HOUSTON INT    PTCLDY    60  58  92 S3        29.77F
LUBBOCK        MOCLDY    48  32  53 W13       29.62S
SAN ANGELO     CLEAR     53  32  44 SW13      29.73R
SAN ANTONIO    PTCLDY    55  48  77 NW5       29.77R
WACO           CLEAR     57  54  89 S12       29.69R
WICHITA FALLS  NOT AVBL
$$
...OTHER LOCATIONS IN NEW MEXICO...

CITY           SKY/WX    TMP DP  RH WIND       PRES   REMARKS
ALAMAGORDO     CLOUDY    45  32  61 S5        29.86R
ALBUQUERQUE    CLOUDY    40  35  83 NE7       29.80F WCI  35
CANNON AFB     CLOUDY    46  31  56 W17       29.62S WCI  39
CLOVIS         PTCLDY    48  28  46 W21G28    29.61R
HOLLOMAN AFB   CLEAR     45  34  63 SE7       29.87R
ROSWELL        CLEAR     50  32  50 W23       29.70S
RUIDOSO        CLOUDY    37  27  65 W13       29.80S WCI  29
SANTA FE       CLOUDY    35  30  82 W12       29.76R WCI  27
TRUTH OR CONSE CLEAR     43  32  65 W6        29.83S WCI  39
TUCUMCARI      CLOUDY    51  30  44 SW26G40   29.52F
$$




USA.gov is the U.S. government's official web portal to all federal, state and local government web resources and services.